Regional Weather Roundup
Issued by NWS

Home | Current Version | Previous Version | Graphics & Text | Print | Product List | Glossary On
Versions: 1 2 3 4 5 6 7 8 9 10 11 12 13 14 15 16 17 18 19 20 21 22 23 24 25 26 27 28 29 30 31 32 33 34 35 36 37 38 39 40 41 42 43 44 45 46 47 48 49 50
000
ASUS43 KDTX 260210
RWRMI
MICHIGAN HOURLY REGIONAL WEATHER ROUNDUP
NATIONAL WEATHER SERVICE DETROIT/PONTIAC MI
1000 PM EDT THU AUG 25 2016

NOTE: "FAIR" INDICATES FEW OR NO CLOUDS BELOW 12,000 FEET WITH NO
SIGNIFICANT WEATHER AND/OR OBSTRUCTION TO VISIBILITY.

MIZ047>049-052>055-059>063-066>070-074>076-081>083-260300-
SOUTHEAST LOWER MICHIGAN

CITY           SKY/WX    TMP DP  RH WIND       PRES   REMARKS
ADRIAN         CLEAR     74  70  87 NW5       30.05R
ALMA           CLEAR     68  63  83 W5        30.03R
ANN ARBOR      CLEAR     69  68  96 SW6       30.03R
BAD AXE        CLEAR     67  65  94 CALM      29.99R
CARO           CLEAR     70  65  84 W5        29.99R
DETROIT CITY   CLEAR     78  70  76 W5        30.00R
DETROIT        PTCLDY    77  70  79 W7        30.02R
FLINT          CLEAR     74  65  73 W7        30.02R
GROSSE ILE     CLEAR     76  69  78 NW3       30.01R
HILLSDALE      CLEAR     71  67  87 W3        30.06R
HOWELL         CLEAR     71  64  79 W7        30.04R

CITY           SKY/WX    TMP DP  RH WIND       PRES   REMARKS
JACKSON        CLEAR     70  66  87 W8        30.05R
LAMBERTVILLE   CLEAR     76  69  79 CALM      30.03S
LANSING        CLEAR     70  59  68 W7        30.05R
LAPEER         FAIR      72  70  92 W5        30.02R
MASON          CLEAR     70  61  73 W6        30.06R
MONROE         PTCLDY    73  70  90 W3        30.01R
MT. CLEMENS    CLEAR     77  70  78 W6        29.98R
PONTIAC        CLEAR     74  66  76 W8        30.02R
PORT HURON     MOCLDY    70  70 100 CALM      29.99S FOG
TRI CITIES     CLEAR     70  64  81 W9        30.01R
MIDLAND        FAIR      71  60  67 W3        30.00R
TROY           CLEAR     79  69  71 CALM      30.03R
SAGINAW HB     CLEAR     72  63  73 W7        30.00R
$$
MIZ043>046-050>051-056>058-064>065-071>073-077>080-260300-
SOUTHWEST LOWER MICHIGAN

CITY           SKY/WX    TMP DP  RH WIND       PRES   REMARKS
BATTLE CREEK   CLEAR     66  65  96 W5        30.06R
BENTON HARBOR  CLOUDY    70  66  87 CALM      30.05R
BIG RAPIDS     CLEAR     65  59  81 CALM      30.03S
COLDWATER      CLEAR     70  67  90 NW5       30.07R
FREMONT        FAIR      64  61  87 CALM      30.03S
HOLLAND        CLEAR     66  62  87 SW5       30.05R
GRAND RAPIDS   MOCLDY    70  60  70 W7        30.05R
IONIA          FAIR      68  59  73 W6        30.04R
KALAMAZOO      CLOUDY    70  61  73 SW3       30.06R
LUDINGTON      CLOUDY    69  65  86 SW6       30.02R
MARSHALL       CLEAR     70  64  83 W5        30.06R
MOUNT PLEASANT CLEAR     70  60  70 W5        30.01S
MUSKEGON       MOCLDY    65  63  93 CALM      30.04R
SOUTH HAVEN    CLOUDY    68  67  96 CALM      30.05R
$$
MIZ016>042-260300-
NORTHERN LOWER MICHIGAN

CITY           SKY/WX    TMP DP  RH WIND       PRES   REMARKS
ALPENA         CLEAR     70  54  56 CALM      29.98R
BEAVER ISLAND  CLEAR     70  64  82 SW9G16    29.94S
BELLAIRE       CLEAR     64  60  86 CALM      29.99R
CADILLAC       CLEAR     63  56  80 SW6       30.03S
CHARLEVOIX     CLEAR     69  60  72 SW7       29.99S
FRANKFORT      CLEAR     72  64  75 SW6       30.00R
GAYLORD        CLEAR     64  55  72 SW3       30.00R
GRAYLING       CLEAR     60  56  87 CALM      30.02R
HARBOR SPRINGS CLEAR     69  61  76 CALM      29.96S
HOUGHTON LAKE  CLEAR     69  56  62 W7        30.02R
MANISTEE       CLEAR     64  61  90 CALM      30.00R
OSCODA         CLEAR     69  62  78 W9        29.97R
PELLSTON       CLEAR     62  59  90 SE3       29.96S
ROGERS CITY    CLEAR     67  55  66 SW9       29.98R
TRAVERSE CITY  PTCLDY    69  59  70 SW5       29.98R
$$
MIZ007>008-015-260300-
EASTERN UPPER MICHIGAN

CITY           SKY/WX    TMP DP  RH WIND       PRES   REMARKS
KINROSS        CLEAR     65  57  75 S5        29.95S
MACKINAC ISLAN CLEAR     67  60  78 S6        29.94S
NEWBERRY       CLEAR     62  60  91 CALM      29.93S
S. S. MARIE    CLEAR     63  57  81 CALM      29.93F
MUNISING         N/A     69  59  70 N7        29.95R
$$
MIZ004>006-011>014-085-260300-
CENTRAL UPPER MICHIGAN

CITY           SKY/WX    TMP DP  RH WIND       PRES   REMARKS
MANISTIQUE     CLEAR     66  64  93 CALM      29.93R
ESCANABA       CLEAR     66  59  78 W6        29.94R
MENOMINEE      CLEAR    N/A N/A N/A W3          N/A
SAWYER-GWINN   MOCLDY    64  55  72 NW8       29.97R
$$
MIZ001>003-009>011-084-260300-
WESTERN UPPER MICHIGAN

CITY           SKY/WX    TMP DP  RH WIND       PRES   REMARKS
IRON MOUNTAIN  CLEAR     68  52  56 W8        29.98R
HOUGHTON       MOCLDY    65  55  70 W20G25    29.95R
COPPER HARBOR    N/A     67  57  70 NW10G24   29.91R
IRONWOOD       CLEAR     60  53  77 W8        30.03R
$$

ABBREVIATIONS USED IN REMARKS
   TC - TEMPERATURE IN CELSIUS
  WCI - WIND CHILL INDEX
   HX - HEAT INDEX
  VSB - VISIBILITY





USA.gov is the U.S. government's official web portal to all federal, state and local government web resources and services.